Regional Weather Roundup
Issued by NWS

Home | Current Version | Previous Version | Text Only | Print | Product List | Glossary Off
Versions: 1 2 3 4 5 6 7 8 9 10 11 12 13 14 15 16 17 18 19 20 21 22 23 24 25 26 27 28 29 30 31 32 33 34 35 36 37 38 39 40 41 42 43 44 45 46 47 48 49 50

000
ASUS43 KLSX 230359
RWRMO

WEATHER SUMMARY FOR MISSOURI
NATIONAL WEATHER SERVICE SPRINGFIELD MO
1000 PM CST SAT NOV 22 2014

NOTE: "FAIR" INDICATES FEW OR NO CLOUDS BELOW 12,000 FEET WITH NO
       SIGNIFICANT WEATHER AND/OR OBSTRUCTIONS TO VISIBILITY.
       CURRENT SKY AND/OR WEATHER CONDITIONS ARE NOT AVAILABLE FOR
       CHILLICOTHE AND FARMINGTON.

MOZ001>031-035>038-043-044-053-054-230500-
...NORTHERN AND WESTERN MISSOURI...

CITY           SKY/WX    TMP DP  RH WIND       PRES   REMARKS
KANSAS CTY INT CLOUDY    55  51  86 S18G25    29.72S
KANSAS C DTWN  CLOUDY    57  50  77 S17       29.73F
ST JOSEPH      CLOUDY    55  50  83 S15       29.70F
CHILLICOTHE      N/A     56  51  84 S12G22    29.75R
KIRKSVILLE     CLOUDY    53  51  93 S10       29.75F

$$
MOZ066>068-077>081-088>096-101>105-230500-
...SOUTHWEST MISSOURI...

CITY           SKY/WX    TMP DP  RH WIND       PRES   REMARKS
SPRINGFIELD    CLEAR     53  50  89 SE17      29.80F
JOPLIN         MOCLDY    55  51  86 SE9       29.75F

$$
MOZ032>034-039>042-045>050-055>058-069>072-230500-
...CENTRAL MISSOURI...

CITY           SKY/WX    TMP DP  RH WIND       PRES   REMARKS
COLUMBIA       CLOUDY    54  50  86 S15       29.82F
JEFFERSON CITY CLOUDY    54  49  83 SE6       29.84F
ROLLA          CLOUDY    51  48  89 S14       29.85F
SEDALIA        PTCLDY    53  49  86 S14       29.79F
WHITEMAN AFB   PTCLDY    52  49  92 S13       29.76F
OSAGE BEACH    CLOUDY    55  48  76 S13G20    29.83F

$$
MOZ051-052-059>065-230500-
...EAST CENTRAL MISSOURI...

CITY           SKY/WX    TMP DP  RH WIND       PRES   REMARKS
ST LOUIS INTL  LGT RAIN  55  50  83 S8        29.90F
SPIRIT OF STL  LGT RAIN  54  50  86 VRB5      29.88F
ST CHARLES     CLOUDY    51  50  96 SE7       29.89F

$$
MOZ072>076-082>087-097>100-106>115-230500-
...SOUTH CENTRAL AND SOUTHEAST MISSOURI...

CITY           SKY/WX    TMP DP  RH WIND       PRES   REMARKS
CAPE GIRARDEAU PTCLDY    53  41  63 S9        29.97F
FARMINGTON     MOCLDY    52  46  82 SE15      29.94F
POPLAR BLUFF   CLEAR     50  41  71 S7        29.95F
WEST PLAINS    MOCLDY    51  47  86 S10       29.90F

$$



USA.gov is the U.S. government's official web portal to all federal, state and local government web resources and services.